TimeEST,TemperatureF,Dew PointF,Humidity,Sea Level PressureIn,VisibilityMPH,Wind Direction,Wind SpeedMPH,Gust SpeedMPH,PrecipitationIn,Events,Conditions,WindDirDegrees,DateUTC
12:51 AM,16.0,14.0,92,30.17,9.0,Calm,Calm,-,N/A,,Clear,0,2013-12-28 05:51:00
1:51 AM,14.0,10.9,88,30.17,7.0,Calm,Calm,-,N/A,,Clear,0,2013-12-28 06:51:00
2:51 AM,12.9,10.0,88,30.17,8.0,Calm,Calm,-,N/A,,Clear,0,2013-12-28 07:51:00
3:51 AM,12.0,10.9,95,30.16,6.0,Calm,Calm,-,N/A,,Clear,0,2013-12-28 08:51:00
4:51 AM,10.0,7.0,87,30.14,8.0,Calm,Calm,-,N/A,,Mostly Cloudy,0,2013-12-28 09:51:00
5:51 AM,18.0,15.1,88,30.12,10.0,SSE,3.5,-,N/A,,Scattered Clouds,160,2013-12-28 10:51:00
6:51 AM,21.9,19.0,89,30.10,10.0,Calm,Calm,-,N/A,,Overcast,0,2013-12-28 11:51:00
7:51 AM,21.0,19.0,92,30.10,9.0,Calm,Calm,-,N/A,,Clear,0,2013-12-28 12:51:00
8:51 AM,23.0,19.9,88,30.09,9.0,Calm,Calm,-,N/A,,Mostly Cloudy,0,2013-12-28 13:51:00
9:51 AM,27.0,21.9,81,30.07,9.0,South,4.6,-,N/A,,Overcast,170,2013-12-28 14:51:00
10:51 AM,28.9,24.1,82,30.04,10.0,South,4.6,-,N/A,,Mostly Cloudy,180,2013-12-28 15:51:00
11:51 AM,35.1,24.1,64,30.02,10.0,SW,6.9,-,N/A,,Scattered Clouds,230,2013-12-28 16:51:00
12:51 PM,39.9,25.0,55,29.99,10.0,SW,5.8,-,N/A,,Overcast,220,2013-12-28 17:51:00
1:51 PM,42.1,26.1,53,29.96,10.0,WSW,10.4,-,N/A,,Scattered Clouds,240,2013-12-28 18:51:00
2:51 PM,41.0,27.0,57,29.98,10.0,SW,3.5,-,N/A,,Overcast,230,2013-12-28 19:51:00
3:51 PM,39.9,28.0,63,29.99,10.0,WSW,8.1,-,N/A,,Overcast,250,2013-12-28 20:51:00
4:51 PM,39.9,28.0,63,30.02,10.0,West,8.1,-,N/A,,Overcast,280,2013-12-28 21:51:00
5:51 PM,39.9,28.9,65,30.02,10.0,SSW,4.6,-,N/A,,Overcast,210,2013-12-28 22:51:00
6:51 PM,37.9,28.9,70,30.02,10.0,Calm,Calm,-,N/A,,Overcast,0,2013-12-28 23:51:00
7:51 PM,39.0,28.9,67,30.06,9.0,WSW,5.8,-,N/A,,Overcast,240,2013-12-29 00:51:00
8:51 PM,37.0,28.9,73,30.06,10.0,SSW,4.6,-,N/A,,Clear,210,2013-12-29 01:51:00
9:51 PM,30.0,26.1,85,30.04,10.0,Calm,Calm,-,N/A,,Clear,0,2013-12-29 02:51:00
10:51 PM,27.0,25.0,92,30.03,7.0,SSE,4.6,-,N/A,,Clear,150,2013-12-29 03:51:00
11:51 PM,25.0,24.1,96,30.01,5.0,Calm,Calm,-,N/A,,Clear,0,2013-12-29 04:51:00